Location: Nag� el Ma?a??a
(24.0667°N, 32.8833°E)
Time: 23:27:40
(UTC+00:00)

SJ 16-02 - Pass Details

Date: 29 January 2022
Orbit: 605 x 615 km, 75.0° (Epoch: 17 May)

Event Time Altitude Azimuth Distance (km) Brightness Sun altitude
Rises 16:13:33 0° 176° (S) 2,848 4.9 -9.8°
Reaches altitude 10° 16:15:53 10° 167° (SSE) 1,949 4.0 -10.3°
Maximum altitude 16:19:54 37° 100° (E) 951 1.9 -11.2°
Drops below altitude 10° 16:23:56 10° 33° (NNE) 1,963 3.5 -12.1°
Enters shadow 16:24:17 - 31° (NNE) 2,096 3.7 -12.2°
